User: anonymous   Login
Location: Unspecified
(0.0000°N, 0.0000°E)
Time: 00:40:03
(UTC+00:00)
Language:

Optus B1 - Orbit

View from above orbital plane
View from above orbital plane
View from above satellite
View from above satellite

Ground track
Ground track

The orbit data is extracted from the following two-line orbital elements,

1 22087U 92054A   14293.67737657 -.00000300  00000-0  00000+0 0    57
2 22087 007.1227 054.3971 0008516 051.3106 316.0871 00.99208559 92469
Epoch (UTC): 20 October 2014 16:15:25
Eccentricity: 0.0008516
inclination: 7.1227°
perigee height: 36051 km
apogee height: 36123 km
right ascension of ascending node: 54.3971°
argument of perigee: 51.3106°
revolutions per day: 0.99208559
mean anomaly at epoch: 316.0871°
orbit number at epoch: 9246

The dashed part of the orbit path shows where the satellite is in the earth's shadow,  

DLR